sat.trackr.live / text

‹ back to catalog

STARLINK-3393

NORAD 51132 · 2022-005AE

PAYLOAD ACTIVE UNKNOWN

§ Identity

Operator
Country
US
Launch date
2022-01-19
Launch site
AFETR
Launch vehicle
Mass (kg)
RCS (m²)

Purposes: comms

External: N2YO · Heavens-Above · Gunter

§ Orbital elements

Epoch: 2026-05-25T04:23:59.743968Z

Period
95.44 min
Inclination
53.2145°
Eccentricity
0.0001516
Mean motion
15.08835844 rev/d
Perigee alt
538.7 km
Apogee alt
540.8 km
Semi-major
6,917.9 km
B*
3.6810e-5
RAAN
315.7281°
Arg perigee
87.6245°
Mean anomaly
272.4921°
Rev number
24,027

§ Raw data

STARLINK-33931 51132U 22005AE  26145.18333037  .00000298  00000+0  36810-4 0  99972 51132  53.2145 315.7281 0001516  87.6245 272.4921 15.08835844240274

JSON: /api/v1/satellites/51132 · /tle

For live sub-satellite position, see the globe view (requires WebGL).

§ Visibility from observer

Set your observer location to see the next 7 days of passes ≥ 10°. The values pass through the URL so the page stays shareable.

No JS? Fill the form by hand. The geolocation button needs JavaScript.